CZ-2F DEB (46394 NORAD) Tracking and Keplerian Element Data

This shows tracking and keplerian element data for the satellite.

Feedback or suggestion? Click here.




ElementValue
Catalog46394
NameCZ-2F DEB
Epoch Orbit302
Epoch Day268.59155808
Epoch Year2020
RAAN322.0687
Inclination50.4625
Eccentricity0.0106559
Argument of Perigee271.6528
Mean Anonmoly87.235
Mean Motion15.57469228
Decay Rate0.00090137
L11 46394U 20063F 20268.59155808 .00090137 00000-0 91610-3 0 9996
L22 46394 50.4625 322.0687 0106559 271.6528 87.2350 15.57469228 3024

Live tracking and technical data element details for CZ-2F DEB (NORAD 46394). CZ-2F DEB can be tracked NOW for your location showing map with azimuth and elevation plus other details from your city location.

Track the satellite on the map from your city or location and see movement details for azimuth, elevation, latitude, longitude, range, height, and movement on the map or in text.







IsCatalogInMostPopularTable: catalog: 46394, numindb: 4
Update: records affected: 1



GetName: 46394 CZ-2F DEB

Hit Count: updated at: Sat, 26 Sep 2020 15:22:20 GMT